Theta_e
313 313 313 313 312 314 312 313 309 316 321 314 319 334 339 343 346 347 346 345 344 342 343 343 344 343 345 346 346 348 345 344 345 347 353 352 353 354 359 360 362 359 357 355
312 315 314 312 314 314 314 314 314 320 321 329 332 337 340 341 341 340 339 338 338 338 340 341 342 341 343 343 345 348 346 347 350 350 351 351 347 347 355 353 349 353 354 356
308 314 314 309 313 314 314 315 314 313 321 324 323 336 337 337 337 335 335 336 336 337 338 339 339 341 339 342 345 345 342 340 339 339 339 345 349 351 350 350 353 351 350 353
310 314 304 315 320 318 317 318 319 328 320 321 335 337 337 339 336 335 335 334 334 335 335 336 337 339 339 339 338 340 342 341 340 341 337 338 340 345 347 349 350 350 350 352
309 308 312 314 317 318 314 313 322 320 330 334 336 336 335 338 339 336 335 334 335 335 334 337 333 335 335 336 335 332 335 338 337 338 337 340 338 341 341 339 340 343 345 345
311 305 302 315 320 321 320 311 324 325 325 333 333 324 328 337 336 334 335 334 333 333 333 332 333 333 332 331 333 334 335 337 336 339 337 337 337 337 338 339 339 340 340 343
309 307 309 318 323 324 310 315 328 328 327 335 330 331 336 335 334 335 334 332 332 331 330 332 331 330 328 330 331 333 334 335 336 337 337 337 338 341 339 337 335 334 334 336
310 307 304 321 322 317 326 330 330 331 335 333 333 333 333 332 332 331 329 326 327 327 327 330 328 330 331 330 334 335 334 334 334 335 333 332 334 335 335 335 334 333 333 334
312 310 322 321 321 325 328 328 330 332 334 333 331 331 331 330 329 328 327 326 324 323 325 326 331 331 330 335 336 336 335 333 334 335 334 334 333 332 331 332 330 329 328 328
313 315 319 321 322 324 325 326 330 332 334 333 329 329 327 326 326 324 323 322 322 322 323 327 331 332 334 335 336 334 332 331 331 331 329 331 330 330 328 328 327 327 327 327
314 317 317 319 321 323 327 330 331 332 332 330 328 326 325 323 322 321 322 322 323 323 326 328 332 332 331 332 333 330 329 328 328 327 327 325 325 325 324 324 320 319 321 323
310 318 318 320 323 325 324 324 325 324 323 324 324 321 319 320 321 321 322 322 323 324 326 327 327 328 331 332 330 329 325 323 323 323 323 323 322 322 319 313 309 306 305 309
314 322 323 325 324 324 323 322 322 321 320 318 318 318 317 318 322 319 322 323 323 322 324 326 326 325 327 328 326 324 321 322 321 320 322 321 321 320 318 319 312 308 305 304
320 321 321 322 320 323 322 320 320 319 318 318 318 318 318 319 320 321 321 321 322 321 320 320 319 318 321 321 323 319 318 313 318 319 320 322 321 319 318 317 317 319 316 309
320 319 319 324 322 319 319 317 316 315 316 317 318 318 319 317 318 319 320 319 318 318 317 316 316 316 320 319 319 318 317 317 318 318 319 318 318 319 319 319 319 320 321 318
317 318 321 319 317 317 316 316 315 316 316 317 317 318 317 318 319 319 319 319 316 315 316 316 316 317 319 318 317 316 316 316 315 315 316 316 318 317 318 320 320 319 321 320
314 316 314 316 316 316 316 317 317 317 317 316 317 316 316 317 318 318 319 319 321 322 319 318 316 318 318 317 317 318 316 315 316 316 316 317 317 318 318 318 318 320 321 321
319 319 319 316 315 317 317 317 317 317 317 318 318 317 316 316 317 318 318 318 319 319 319 318 318 317 318 318 317 315 316 315 316 315 318 317 318 319 319 319 319 319 319 321
319 318 318 318 319 319 318 317 318 318 319 318 316 316 317 318 316 317 318 319 318 317 320 319 318 318 319 319 316 314 316 315 314 314 315 316 317 318 319 319 318 319 319 318
317 318 319 317 319 318 317 317 317 317 318 318 317 316 317 317 317 318 319 318 319 319 321 320 318 318 319 321 316 314 317 316 314 315 314 314 314 312 312 309 313 314 314 314
318 317 316 318 317 318 317 318 317 316 317 317 316 318 315 318 319 320 317 314 321 321 320 318 319 317 317 316 314 313 314 314 312 313 313 314 313 313 311 311 311 311 311 311
317 316 316 318 317 316 318 317 317 317 316 318 319 319 317 318 318 320 320 319 318 312 315 318 317 315 316 313 315 313 312 312 311 311 312 312 312 312 309 309 308 309 310 309
318 318 319 318 316 317 317 318 321 318 319 320 318 320 317 314 315 313 311 317 314 313 315 316 314 313 313 317 316 313 312 311 310 312 314 314 311 309 308 308 308 308 308 308
316 314 316 317 315 315 317 322 318 320 322 323 317 324 321 315 316 316 315 314 310 312 316 316 314 312 311 317 315 314 312 311 312 314 314 305 312 309 308 307 307 307 307 306
319 319 319 317 317 317 320 319 318 319 315 315 323 322 325 321 318 317 319 319 312 313 314 312 312 312 316 317 316 313 313 314 315 314 314 313 311 310 307 307 306 306 306 306
319 316 318 320 317 317 316 316 313 314 313 312 314 314 314 317 317 317 319 315 317 312 314 315 313 312 316 316 316 315 314 314 314 311 312 312 309 308 307 307 306 306 305 306
317 311 316 316 317 316 313 316 313 312 312 313 310 313 314 317 316 315 312 316 315 315 312 314 314 313 317 316 316 318 316 314 307 312 311 310 309 308 307 308 308 308 306 306
Wind_Speed
20 20 7 13 6 24 17 11 15 14 14 16 8 6 6 12 12 12 13 13 13 14 13 13 12 14 13 12 11 12 11 10 11 9 7 7 6 5 4 4 3 6 6 9
18 20 19 13 15 14 15 11 11 17 14 13 24 10 11 11 14 13 13 13 13 13 13 12 12 12 11 11 11 10 10 6 7 7 8 9 8 5 6 6 5 5 5 5
16 18 16 17 18 15 15 13 14 4 16 16 14 13 14 14 16 15 14 14 13 12 11 11 11 10 10 8 7 8 5 8 10 10 11 12 10 6 5 6 6 6 4 4
13 14 16 18 5 6 24 19 8 22 25 24 25 18 15 14 15 16 16 14 13 11 10 9 9 7 6 4 4 4 3 3 3 5 2 4 9 8 9 7 6 6 6 7
10 15 19 23 16 4 6 9 31 5 17 20 15 18 14 14 13 15 15 11 10 10 10 8 8 5 4 5 3 2 2 4 3 6 4 5 8 7 7 9 9 9 9 8
14 17 20 13 11 14 17 16 14 4 4 20 19 11 10 14 13 15 13 10 10 11 11 8 4 4 3 2 4 3 4 4 2 3 6 6 7 8 8 9 11 9 10 9
15 17 16 20 9 3 9 1 12 4 9 19 11 3 18 15 15 12 10 9 7 4 9 5 3 4 4 5 5 6 7 7 7 7 8 8 8 6 8 9 10 11 13 12
12 17 16 17 8 7 7 5 7 6 14 19 16 17 14 14 13 11 10 8 3 4 5 4 2 3 4 5 5 6 7 8 9 9 9 9 10 10 10 11 12 12 13 12
11 1 4 9 8 9 9 4 4 5 12 17 15 15 16 12 10 8 7 6 2 3 3 2 3 3 4 4 4 5 6 8 8 9 9 10 11 11 10 11 10 10 10 10
6 3 9 7 7 5 6 5 3 5 15 14 13 14 13 10 8 6 6 3 3 4 4 4 4 5 5 5 5 6 8 8 8 9 11 10 9 9 10 9 10 9 9 9
7 8 10 3 4 3 6 7 9 9 9 12 13 12 10 8 6 3 2 2 4 5 5 6 5 6 7 8 8 8 8 9 10 9 9 9 8 9 10 11 9 8 10 12
7 5 4 5 8 6 8 8 8 12 13 11 11 10 7 6 4 2 5 5 5 6 7 7 8 8 8 9 10 9 9 9 9 10 9 9 9 9 10 12 13 11 11 10
10 9 7 7 10 8 10 10 9 9 9 9 9 8 3 3 6 1 4 6 7 8 9 9 10 11 11 10 10 10 11 12 10 12 11 11 9 10 12 9 13 14 14 15
1 5 9 12 9 10 11 12 10 11 7 6 8 5 3 3 3 5 6 7 8 9 8 9 10 11 11 12 11 11 10 12 11 10 10 10 10 10 9 11 11 10 12 12
6 4 10 14 12 12 12 8 9 9 8 7 4 4 4 3 4 5 5 7 8 8 9 9 9 9 9 8 10 11 11 9 10 10 11 11 11 11 11 11 10 10 11 11
2 9 12 16 12 14 12 10 9 8 4 5 5 5 3 3 3 4 3 4 6 6 4 5 6 7 8 8 8 8 8 12 12 9 9 9 10 10 10 10 9 8 9 9
7 10 12 8 13 14 12 8 4 7 5 4 4 2 1 1 2 4 6 8 7 8 5 7 8 8 9 7 8 7 6 8 14 10 8 8 8 10 10 10 10 11 10 11
9 13 16 11 11 11 10 10 5 5 4 5 3 2 3 2 7 6 7 6 8 7 4 5 4 7 8 6 8 8 7 7 8 9 7 8 8 8 9 10 10 10 11 11
9 12 5 4 14 13 8 7 6 5 4 3 3 3 2 5 4 5 7 7 7 8 1 6 0 7 8 6 6 10 7 7 8 8 8 8 7 7 8 8 9 10 10 10
16 17 14 15 8 14 7 4 4 4 3 3 2 3 5 3 5 7 7 9 9 6 5 8 7 7 8 7 11 10 7 8 8 8 7 7 6 7 8 10 10 10 10 10
14 16 15 13 10 12 9 5 2 1 1 1 4 0 1 5 7 9 8 9 2 7 7 9 7 5 6 8 10 9 7 7 8 9 9 7 8 8 8 9 9 9 10 9
9 9 9 7 4 4 4 2 3 3 1 4 6 2 4 6 8 9 6 8 4 5 5 7 7 2 5 6 9 9 8 8 6 7 6 7 6 7 7 8 9 9 8 8
9 7 5 4 1 6 3 5 1 4 1 3 4 6 6 6 7 6 8 5 5 2 6 8 2 7 8 7 9 4 5 5 6 7 7 7 8 6 7 8 8 8 8 7
6 5 4 4 8 12 5 3 3 5 8 6 5 8 7 7 7 4 5 8 5 5 6 9 4 8 7 7 7 8 7 7 6 8 5 3 6 6 6 7 7 7 7 8
5 6 6 6 7 9 6 5 3 8 3 9 11 10 10 8 7 6 8 7 6 5 6 4 6 10 9 5 8 7 8 9 7 5 6 4 5 6 5 5 6 6 6 6
5 6 6 10 6 5 5 3 5 5 5 4 4 5 5 5 5 5 6 7 8 8 10 10 6 5 9 8 11 7 7 6 3 1 7 4 3 2 4 5 5 5 6 6
7 7 6 5 4 3 3 4 4 6 3 5 5 4 6 2 3 6 4 6 7 11 7 10 11 3 5 6 10 15 8 8 8 6 5 2 1 1 3 3 3 3 3 5
Wind_Direction
288 290 276 275 208 272 237 268 290 123 126 117 331 320 149 136 120 113 95 87 79 76 73 68 60 63 58 59 56 53 56 41 51 45 31 13 357 26 37 44 14 8 1 344
274 287 292 271 269 274 271 287 291 125 129 160 181 190 152 142 137 126 112 105 102 99 96 92 81 69 66 59 56 56 62 47 48 36 35 14 337 343 350 7 3 352 347 337
253 269 272 265 269 267 262 272 286 301 161 170 189 166 151 151 140 132 126 121 118 108 96 85 81 82 71 51 38 52 35 31 3 20 351 16 310 329 333 351 333 319 322 321
276 298 272 280 72 31 329 323 326 117 149 174 165 147 147 148 141 133 131 129 126 111 106 107 105 92 97 75 3 334 91 110 208 135 260 30 316 327 344 322 316 305 299 291
256 253 268 279 303 20 141 291 286 243 124 133 123 128 126 127 132 128 123 132 118 139 127 113 116 131 134 151 142 37 345 68 345 354 336 282 279 312 305 300 302 297 294 291
273 266 266 295 56 360 325 311 341 82 147 141 138 155 135 121 133 121 124 131 150 147 144 120 101 85 41 16 20 343 358 356 331 252 245 286 306 293 293 289 287 282 284 294
249 243 255 333 35 7 220 340 343 62 250 130 123 27 128 142 121 129 132 131 129 132 96 95 69 29 345 350 348 358 348 338 331 332 322 302 290 298 314 311 301 289 284 283
303 256 224 8 0 12 356 344 0 353 95 93 99 110 120 132 134 144 138 128 136 104 87 85 41 357 345 336 352 343 332 325 321 319 314 313 308 300 292 289 285 281 278 276
243 105 137 36 22 359 334 351 13 71 104 112 121 132 137 127 137 139 129 93 19 28 35 16 19 351 333 340 330 319 313 303 300 299 295 290 283 281 279 269 267 273 273 275
290 24 63 32 13 337 324 329 143 127 110 124 126 125 122 130 136 116 61 10 343 342 346 343 353 341 323 325 332 326 311 306 304 295 281 273 269 267 266 269 273 276 280 286
334 311 286 250 303 41 32 63 69 81 111 111 114 114 126 99 76 82 61 296 359 342 332 328 334 337 335 332 325 316 311 302 290 288 307 312 292 303 313 305 309 313 325 316
310 320 328 52 102 100 100 86 82 83 80 81 96 92 70 89 86 53 21 341 313 327 331 338 330 322 331 357 337 333 320 312 312 307 307 310 309 303 283 288 292 292 289 273
301 55 59 117 131 134 127 119 110 107 99 89 74 97 127 92 87 354 287 354 353 339 332 345 344 349 348 340 350 337 320 315 317 314 306 299 306 303 301 294 283 280 271 269
322 72 128 133 154 143 132 111 106 96 87 100 124 134 111 71 59 25 16 359 351 359 338 338 348 334 338 332 336 326 319 309 298 300 307 303 305 296 297 297 297 297 295 280
125 275 260 149 131 115 114 138 137 149 141 133 117 100 70 52 49 62 41 24 4 359 3 345 331 319 315 314 308 310 311 304 305 305 300 305 298 293 289 280 285 296 296 297
92 256 128 140 138 141 157 164 179 143 163 151 151 110 123 128 145 110 48 74 0 345 322 332 319 322 312 310 307 300 295 294 285 282 282 288 292 287 298 306 306 291 292 291
267 152 123 149 148 162 178 177 145 128 130 175 110 124 156 225 293 39 18 13 347 316 35 19 1 335 326 306 320 314 306 294 288 277 274 277 282 288 283 287 291 296 298 297
244 147 148 175 149 154 109 113 123 142 152 95 113 224 224 329 34 30 352 335 312 319 28 15 13 332 294 327 342 324 309 302 301 311 282 288 295 301 300 295 290 292 292 294
113 121 140 157 135 111 132 137 141 124 110 164 193 226 44 65 26 323 314 298 285 283 339 338 172 302 299 356 339 325 320 316 308 306 300 294 292 299 308 310 304 301 302 302
351 111 95 74 320 96 104 86 116 144 159 203 210 254 85 23 313 293 283 276 269 264 282 286 306 290 282 310 357 323 333 328 309 303 303 305 316 323 311 309 301 302 303 300
111 70 25 56 54 48 41 58 7 344 152 274 246 28 306 287 280 279 285 276 85 181 237 276 272 286 321 340 322 323 319 322 309 310 298 292 316 319 319 314 314 308 307 307
90 91 130 125 131 120 232 285 208 231 279 7 29 65 248 256 269 278 276 299 338 219 314 323 298 162 293 296 308 314 331 318 300 303 307 327 328 339 320 312 312 312 308 307
88 70 68 75 72 310 230 195 222 85 98 204 235 248 257 260 275 286 291 302 259 293 318 305 167 225 247 276 287 303 269 269 288 306 318 345 346 329 318 313 312 316 319 324
116 98 48 18 5 306 269 173 212 232 229 250 256 262 260 284 283 228 289 281 227 248 282 301 331 293 265 292 290 286 268 274 281 284 301 345 344 324 324 323 324 333 330 335
194 185 180 197 232 248 216 200 269 283 194 229 239 248 250 242 252 285 271 299 340 333 313 280 249 265 277 273 257 258 270 249 255 282 328 3 360 340 328 329 331 340 341 344
183 203 205 220 218 236 162 202 233 244 252 300 320 6 322 313 306 310 320 17 17 359 340 318 307 327 320 319 331 314 307 279 218 24 17 32 43 341 328 334 341 351 353 352
195 236 182 225 197 90 12 188 263 305 256 276 357 301 283 336 318 24 12 344 339 321 292 286 290 311 309 351 357 298 305 90 61 53 47 327 339 283 294 305 309 349 352 352